Location: Rancho Del Sol Observatory
(38.7214°N, 120.6350°W)
Time: 19:54:29
(UTC-08:00)

A-11 Canister half - Pass Details

Date: 03 February 2020
Orbit: 1517 x 1683 km, 47.2° (Epoch: 16 February)

Event Time Altitude Azimuth Distance (km) Brightness Sun altitude
Rises 01:20:28 0° 292° (WNW) 4,719 - -63.8°
Reaches altitude 10° 01:23:39 10° 297° (WNW) 3,718 - -63.4°
Maximum altitude 01:32:51 59° 16° (NNE) 1,726 - -62.3°
Drops below altitude 10° 01:41:57 10° 95° (E) 3,677 - -61.0°
Exits shadow 01:43:12 - 97° (E) 4,070 11.4 -60.9°
Sets 01:45:04 0° 99° (E) 4,664 11.8 -60.6°
